Regional Weather Roundup
Issued by NWS

Home | Current Version | Previous Version | Graphics & Text | Print | Product List | Glossary On
Versions: 1 2 3 4 5 6 7 8 9 10 11 12 13 14 15 16 17 18 19 20 21 22 23 24 25 26 27 28 29 30 31 32 33 34 35 36 37 38 39 40 41 42 43 44 45 46 47 48 49 50
000
ASUS43 KDTX 312210
RWRMI
MICHIGAN HOURLY REGIONAL WEATHER ROUNDUP
NATIONAL WEATHER SERVICE DETROIT/PONTIAC MI
600 PM EDT FRI JUL 31 2015

NOTE: "FAIR" INDICATES FEW OR NO CLOUDS BELOW 12,000 FEET WITH NO
SIGNIFICANT WEATHER AND/OR OBSTRUCTION TO VISIBILITY.

MIZ047>049-052>055-059>063-066>070-074>076-081>083-312300-
SOUTHEAST LOWER MICHIGAN

CITY           SKY/WX    TMP DP  RH WIND       PRES   REMARKS
ADRIAN         SUNNY     82  50  32 NW16G26   29.89S
ALMA           PTSUNNY   80  54  39 W16G23    29.85S
ANN ARBOR      SUNNY     83  51  33 W16G25    29.86S
BAD AXE        PTSUNNY   78  58  51 NW22      29.82R
DETROIT CITY   SUNNY     86  52  30 NW13G28   29.82S
DETROIT        MOSUNNY   86  54  33 W18G26    29.84S
FLINT          MOSUNNY   84  52  33 W21G28    29.83F
GROSSE ILE     MOSUNNY   86  52  30 W14G20    29.83S
HILLSDALE      MOSUNNY   81  51  35 W17G24    29.92S
HOWELL         MOSUNNY   82  49  31 W20       29.86S

CITY           SKY/WX    TMP DP  RH WIND       PRES   REMARKS
JACKSON        MOSUNNY   80  54  40 W17G26    29.89S
LAMBERTVILLE   SUNNY     85  53  32 W7G21     29.87S
LANSING        SUNNY     82  47  29 W22G32    29.88R
LAPEER         NOT AVBL
MASON          MOSUNNY   80  48  32 W21G35    29.88S
MONROE         MOSUNNY   84  54  35 W14G24    29.84S
MT. CLEMENS    MOSUNNY   85  51  31 W21G26    29.80S
PONTIAC        MOSUNNY   83  50  31 W18G28    29.84S
PORT HOPE        N/A     72  63  73 W13G22    29.81R
PORT HURON     SUNNY     82  54  36 W10G22    29.80S
TRI CITIES     MOSUNNY   83  56  39 NW18G25   29.82S
YPSILANTI      MOSUNNY   87  50  27 W21G28    29.85S
$$
MIZ043>046-050>051-056>058-064>065-071>073-077>080-312300-
SOUTHWEST LOWER MICHIGAN

CITY           SKY/WX    TMP DP  RH WIND       PRES   REMARKS
BATTLE CREEK   MOSUNNY   82  53  36 NW16G24   29.92R
BENTON HARBOR  SUNNY     79  56  45 VRB6G16   29.93S
BIG RAPIDS     MOSUNNY   78  47  33 NW10G18   29.87S
COLDWATER      MOSUNNY   81  51  35 W15G24    29.91S
HOLLAND        SUNNY     81  53  37 NW13G20   29.92S
GRAND RAPIDS   MOSUNNY   81  49  32 W17G28    29.89S
KALAMAZOO      SUNNY     82  50  32 NW17G28   29.92R
MARSHALL       MOSUNNY   81  54  39 W13G25    29.90S
MUSKEGON       MOSUNNY   80  54  40 W13       29.90S
$$
MIZ016>042-312300-
NORTHERN LOWER MICHIGAN

CITY           SKY/WX    TMP DP  RH WIND       PRES   REMARKS
ALPENA         CLOUDY    70  58  65 VRB5      29.80R
BEAVER ISLAND  PTSUNNY   71  57  61 SW9       29.84R
BELLAIRE       MOSUNNY   76  56  49 W8        29.83S
CADILLAC       MOSUNNY   78  53  42 W16G25    29.87S
CHARLEVOIX     LGT RAIN  65  62  87 W5        29.88R
FRANKFORT      LGT RAIN  74  61  63 NW6       29.87R
GAYLORD        SUNNY     74  55  51 W10G16    29.85S
GRAYLING       PTSUNNY   78  52  40 NW13G21   29.85S
HARBOR SPRINGS PTSUNNY   71  56  59 W8G16     29.83R
HOUGHTON LAKE  PTSUNNY   77  51  40 NW13      29.85R
MANISTEE       SUNNY     79  55  44 W14       29.87S
OSCODA         PTSUNNY   84  50  30 W14       29.77S
PELLSTON       CLOUDY    73  54  51 W17       29.83R
TRAVERSE CITY  PTSUNNY   80  52  37 W18       29.83R
$$
MIZ007>008-015-312300-
EASTERN UPPER MICHIGAN

CITY           SKY/WX    TMP DP  RH WIND       PRES   REMARKS
KINROSS        SUNNY     70  57  64 NW13G24   29.81R
MACKINAC ISLAN CLOUDY    72  56  56 W17G28    29.80R
NEWBERRY       MOSUNNY   71  53  52 W16G25    29.82S
S. S. MARIE    SUNNY     65  56  72 NW17G26   29.81R
$$
MIZ004>006-011>014-085-312300-
CENTRAL UPPER MICHIGAN

CITY           SKY/WX    TMP DP  RH WIND       PRES   REMARKS
MANISTIQUE     MOSUNNY   75  54  46 NW15G21   29.83R
ESCANABA       MOSUNNY   79  48  34 W16G24    29.82S
MENOMINEE      MOSUNNY   79  54  41 N13G22    29.85F
SAWYER-GWINN   MOSUNNY   72  48  43 NW20      29.86S
$$
MIZ001>003-009>011-084-312300-
WESTERN UPPER MICHIGAN

CITY           SKY/WX    TMP DP  RH WIND       PRES   REMARKS
IRON MOUNTAIN  PTSUNNY   77  50  38 NW15G25   29.87S
HOUGHTON       PTSUNNY   69  53  56 W16       29.86S
COPPER HARBOR    N/A     73  52  47 N15G26    29.82S
IRONWOOD       CLOUDY    61  57  88 SW8       29.92S
$$

ABBREVIATIONS USED IN REMARKS
   TC - TEMPERATURE IN CELSIUS
  WCI - WIND CHILL INDEX
   HX - HEAT INDEX
  VSB - VISIBILITY



USA.gov is the U.S. government's official web portal to all federal, state and local government web resources and services.